WB0YAF-8 Weather Reports


time (UTC)temp
F
wind
direction
speed
knots
gust
knots
rain 1hr
in
rain 24hr
in
rain mn
in
humidity
%
barometer
mb
20260507163940 63 113 0.0 0.0 0.00 0.00 0.00 34 1018.8
20260507163439 63 90 0.0 0.0 0.00 0.00 0.00 34 1018.8
20260507162939 63 135 0.0 0.0 0.00 0.00 0.00 34 1018.8
20260507162438 62 158 0.0 0.0 0.00 0.00 0.00 34 1018.8
20260507161940 61 158 0.0 0.0 0.00 0.00 0.00 34 1018.8
20260507161440 61 68 0.0 0.0 0.00 0.00 0.00 34 1018.8
20260507160938 60 23 0.0 0.0 0.00 0.00 0.00 35 1018.8
20260507160438 61 23 0.0 2.6 0.00 0.00 0.00 35 1018.8
20260507155938 61 158 0.0 2.6 0.00 0.00 0.00 35 1019.1
20260507155439 60 68 0.0 0.0 0.00 0.00 0.00 35 1019.8
20260507154939 60 158 0.0 2.6 0.00 0.00 0.00 35 1019.8
20260507154439 60 180 0.0 0.0 0.00 0.00 0.00 35 1019.3
20260507153940 60 45 0.0 2.6 0.00 0.00 0.00 35 1018.8
20260507153438 60 180 0.0 0.0 0.00 0.00 0.00 35 1018.8
20260507152938 59 158 0.0 0.0 0.00 0.00 0.00 35 1018.8
20260507152439 59 180 0.0 2.6 0.00 0.00 0.00 35 1018.8
20260507151939 59 23 0.0 2.6 0.00 0.00 0.00 35 1018.8
20260507151439 58 180 0.0 0.0 0.00 0.00 0.00 35 1018.8
20260507150940 58 0 0.0 4.3 0.00 0.00 0.00 35 1018.8
20260507150439 58 225 0.0 0.0 0.00 0.00 0.00 35 1018.8
20260507145939 57 90 0.0 0.0 0.00 0.00 0.00 35 1018.8
20260507145439 57 0 0.0 0.0 0.00 0.00 0.00 35 1018.8
20260507144939 57 90 0.0 4.3 0.00 0.00 0.00 35 1018.8
20260507144439 57 203 0.0 2.6 0.00 0.00 0.00 35 1018.8
20260507143940 57 45 0.0 2.6 0.00 0.00 0.00 35 1018.8
20260507143440 56 180 0.0 2.6 0.00 0.00 0.00 35 1018.8
20260507142940 56 135 0.0 0.0 0.00 0.00 0.00 35 1018.8
20260507142438 56 338 0.0 0.0 0.00 0.00 0.00 35 1018.8
20260507141938 55 158 0.0 0.0 0.00 0.00 0.00 36 1018.8
20260507141440 54 315 0.0 0.0 0.00 0.00 0.00 36 1018.8
20260507140939 54 180 0.0 2.6 0.00 0.00 0.00 36 1018.8
20260507140439 54 90 0.0 0.0 0.00 0.00 0.00 36 1018.8
20260507135939 53 0 0.0 2.6 0.00 0.00 0.00 36 1018.8
20260507135438 51 0 0.0 0.0 0.00 0.00 0.00 37 1018.8
20260507134938 51 0 0.0 2.6 0.00 0.00 0.00 37 1018.8
20260507134440 50 158 0.0 2.6 0.00 0.00 0.00 37 1018.8
20260507133939 51 0 0.0 0.0 0.00 0.00 0.00 37 1018.8
20260507133439 51 0 0.0 0.0 0.00 0.00 0.00 37 1018.8
20260507132939 50 0 0.0 0.0 0.00 0.00 0.00 37 1018.8
20260507132439 49 0 0.0 0.0 0.00 0.00 0.00 37 1018.8
20260507131939 48 0 0.0 0.0 0.00 0.00 0.00 37 1018.8
20260507131439 46 0 0.0 0.0 0.00 0.00 0.00 38 1018.8
20260507130940 45 0 0.0 0.0 0.00 0.00 0.00 38 1018.8
20260507130440 43 0 0.0 2.6 0.00 0.00 0.00 38 1018.8
20260507125939 43 0 0.0 2.6 0.00 0.00 0.00 38 1018.8
20260507125439 42 0 0.0 2.6 0.00 0.00 0.00 39 1018.8
20260507124939 42 0 0.0 0.0 0.00 0.00 0.00 39 1018.8
20260507124439 41 0 0.0 0.0 0.00 0.00 0.00 39 1018.8
20260507123940 41 0 0.0 0.0 0.00 0.00 0.00 39 1018.8
20260507123440 39 0 0.0 0.0 0.00 0.00 0.00 39 1018.8
20260507122939 38 0 0.0 0.0 0.00 0.00 0.00 40 1018.8
20260507122438 37 0 0.0 0.0 0.00 0.00 0.00 40 1018.8
20260507121938 36 0 0.0 0.0 0.00 0.00 0.00 40 1018.8
20260507121440 36 0 0.0 0.0 0.00 0.00 0.00 40 1018.8
20260507120939 36 23 0.0 0.0 0.00 0.00 0.00 40 1018.8
20260507120438 36 90 0.0 0.0 0.00 0.00 0.00 40 1018.8
20260507115938 36 113 0.0 0.0 0.00 0.00 0.00 40 1018.8
20260507115439 36 23 0.0 0.0 0.00 0.00 0.00 40 1018.8
20260507114939 36 0 0.0 2.6 0.00 0.00 0.00 40 1018.8
20260507114439 36 0 0.0 0.0 0.00 0.00 0.00 40 1018.8
20260507113940 36 0 0.0 2.6 0.00 0.00 0.00 40 1018.8
20260507113439 36 0 0.0 0.0 0.00 0.00 0.00 40 1018.8
20260507112939 36 0 0.0 0.0 0.00 0.00 0.00 40 1018.8
20260507112438 36 0 0.0 0.0 0.00 0.00 0.00 40 1018.8
20260507111938 36 0 0.0 0.0 0.00 0.00 0.00 40 1018.8
20260507111440 35 23 0.0 0.0 0.00 0.00 0.00 40 1018.8
20260507110939 35 23 0.0 0.0 0.00 0.00 0.00 40 1018.8
20260507110439 35 23 0.0 0.0 0.00 0.00 0.00 40 1018.8
20260507105938 35 23 0.0 0.0 0.00 0.00 0.00 40 1018.8
20260507105439 35 23 0.0 0.0 0.00 0.00 0.00 40 1018.8
20260507104939 35 23 0.0 0.0 0.00 0.00 0.00 41 1018.8
20260507104439 35 23 0.0 0.0 0.00 0.00 0.00 41 1018.8
20260507103940 35 23 0.0 0.0 0.00 0.00 0.00 41 1018.8
20260507103440 36 23 0.0 0.0 0.00 0.00 0.00 40 1018.8
20260507102940 35 23 0.0 0.0 0.00 0.00 0.00 40 1018.8
20260507102439 35 23 0.0 0.0 0.00 0.00 0.00 41 1018.8
20260507101939 35 23 0.0 0.0 0.00 0.00 0.00 41 1018.8
20260507101439 35 45 0.0 0.0 0.00 0.00 0.00 41 1018.8
20260507100938 35 0 0.0 0.0 0.00 0.00 0.00 41 1018.8
20260507100438 35 0 0.0 0.0 0.00 0.00 0.00 41 1018.8
20260507095938 35 0 0.0 0.0 0.00 0.00 0.00 41 1018.8
20260507095439 35 0 0.0 0.0 0.00 0.00 0.00 41 1018.8
20260507094939 35 0 0.0 0.0 0.00 0.00 0.00 41 1018.8
20260507094439 34 0 0.0 0.0 0.00 0.00 0.00 41 1018.8
20260507093940 34 0 0.0 0.0 0.00 0.00 0.00 41 1018.8
20260507093439 34 0 0.0 0.0 0.00 0.00 0.00 42 1018.8
20260507092939 34 0 0.0 0.0 0.00 0.00 0.00 41 1018.8
20260507092438 34 0 0.0 0.0 0.00 0.00 0.00 42 1018.8
20260507091938 34 0 0.0 0.0 0.00 0.00 0.00 42 1018.8
20260507091438 34 0 0.0 0.0 0.00 0.00 0.00 42 1018.8
20260507090939 33 23 1.7 2.6 0.00 0.00 0.00 43 1018.8
20260507090439 33 0 0.0 2.6 0.00 0.00 0.00 44 1018.8
20260507085939 33 23 0.0 0.0 0.00 0.00 0.00 44 1018.8
20260507085439 32 23 0.0 2.6 0.00 0.00 0.00 46 1018.8
20260507084939 32 0 0.0 2.6 0.00 0.00 0.00 46 1018.8
20260507084438 32 23 0.0 2.6 0.00 0.00 0.00 47 1018.8
20260507083939 32 23 0.0 2.6 0.00 0.00 0.00 48 1018.8
20260507083439 32 23 0.0 2.6 0.00 0.00 0.00 50 1018.8
20260507082927 32 23 0.0 0.0 0.00 0.00 0.00 51 1019.3
20260507082428 31 0 0.0 2.6 0.00 0.00 0.00 56 1019.8
20260507081928 31 0 0.0 0.0 0.00 0.00 0.00 59 1019.8
20260507081428 31 0 0.0 0.0 0.00 0.00 0.00 64 1019.8
20260507080511 31 0 0.0 0.0 0.00 0.00 0.00 71 1019.8
20260507080011 31 113 0.0 0.0 0.00 0.00 0.00 77 1019.8
20260507074247 30 113 0.0 0.0 0.00 0.00 0.00 80 1019.8
20260507073746 30 113 0.0 0.0 0.00 0.00 0.00 81 1019.8
20260507073246 30 135 0.0 0.0 0.00 0.00 0.00 82 1019.8
20260507072747 30 135 0.0 0.0 0.00 0.00 0.00 82 1019.8
20260507072248 30 135 0.0 0.0 0.00 0.00 0.00 83 1019.8
20260507071253 30 135 0.0 0.0 0.00 0.00 0.00 83 1019.8
20260507070754 29 135 0.0 0.0 0.00 0.00 0.00 83 1019.8
20260507070254 29 135 0.0 0.0 0.00 0.00 0.00 82 1019.8
20260507065754 29 135 0.0 0.0 0.00 0.00 0.00 82 1019.8
20260507065254 29 135 0.0 0.0 0.00 0.00 0.00 82 1019.8
20260507064754 30 135 0.0 0.0 0.00 0.00 0.00 82 1019.8
20260507064253 30 135 0.0 0.0 0.00 0.00 0.00 81 1019.8
20260507063754 30 135 0.0 0.0 0.00 0.00 0.00 81 1019.8
20260507063254 30 135 0.0 0.0 0.00 0.00 0.00 82 1019.8
20260507062754 31 135 0.0 0.0 0.00 0.00 0.00 82 1019.8
20260507062253 31 135 0.0 0.0 0.00 0.00 0.00 82 1019.8
20260507061754 31 135 0.0 0.0 0.00 0.00 0.00 82 1019.8
20260507061254 31 135 0.0 0.0 0.00 0.00 0.00 81 1019.8
20260507060755 31 135 0.0 0.0 0.00 0.00 0.00 81 1019.8
20260507060254 31 135 0.0 0.0 0.00 0.00 0.00 81 1019.8
20260507055754 31 135 0.0 0.0 0.00 0.00 0.00 81 1019.8
20260507055253 31 135 0.0 0.0 0.00 0.00 0.00 82 1019.8
20260507054753 31 135 0.0 0.0 0.00 0.00 0.00 82 1019.8
20260507054253 31 135 0.0 0.0 0.00 0.00 0.00 82 1019.8
20260507053754 31 135 0.0 0.0 0.00 0.00 0.00 82 1019.8
20260507053254 31 135 0.0 0.0 0.00 0.00 0.00 82 1019.8
20260507052754 31 135 0.0 0.0 0.00 0.00 0.00 81 1019.8
20260507052254 31 135 0.0 0.0 0.00 0.00 0.00 81 1019.8
20260507051754 31 135 0.0 0.0 0.00 0.00 0.00 80 1019.8
20260507051254 31 135 0.0 0.0 0.00 0.00 0.00 80 1019.8
20260507050753 31 135 0.0 0.0 0.00 0.00 0.00 78 1019.8
20260507050253 32 135 0.0 0.0 0.00 0.00 0.00 78 1019.8
20260507045754 32 135 0.0 0.0 0.00 0.00 0.00 76 1019.8
20260507045255 32 135 0.0 0.0 0.00 0.00 0.00 76 1019.8
20260507044755 32 135 0.0 0.0 0.00 0.00 0.00 76 1019.8
20260507044255 32 135 0.0 0.0 0.00 0.00 0.00 76 1019.8
20260507043753 32 135 0.0 0.0 0.00 0.00 0.00 76 1019.8
20260507043253 33 135 0.0 0.0 0.00 0.00 0.00 76 1019.8
20260507042753 33 135 0.0 0.0 0.00 0.00 0.00 76 1019.8
20260507042254 33 113 0.0 2.6 0.00 0.00 0.00 76 1019.8
20260507041754 33 113 0.0 0.0 0.00 0.00 0.00 77 1019.8
20260507041254 33 113 0.0 0.0 0.00 0.00 0.00 77 1019.8
20260507040753 33 113 0.0 0.0 0.00 0.00 0.00 76 1019.8
20260507040253 33 113 0.0 2.6 0.00 0.00 0.00 76 1019.8
20260507035755 33 135 0.0 0.0 0.00 0.00 0.00 74 1019.8
20260507035254 33 135 0.0 0.0 0.00 0.00 0.00 73 1019.8
20260507034754 33 135 0.0 0.0 0.00 0.00 0.00 72 1019.8
20260507034254 33 113 0.0 2.6 0.00 0.00 0.00 71 1018.8
20260507033754 33 113 0.0 2.6 0.00 0.00 0.00 69 1018.8
20260507033254 33 113 0.0 0.0 0.00 0.00 0.00 68 1018.8
20260507032754 33 113 0.0 2.6 0.00 0.00 0.00 66 1018.8
20260507032254 34 135 0.0 0.0 0.00 0.00 0.00 63 1018.8
20260507031754 34 113 0.0 0.0 0.00 0.00 0.00 62 1018.8
20260507031254 34 113 0.0 0.0 0.00 0.00 0.00 62 1018.8
20260507030754 34 113 0.0 2.6 0.00 0.00 0.00 60 1018.8
20260507030254 34 113 0.0 0.0 0.00 0.00 0.00 59 1018.8
20260507025754 34 113 0.0 0.0 0.00 0.00 0.00 58 1018.8
20260507025254 34 90 0.0 0.0 0.00 0.00 0.00 57 1018.8
20260507024754 34 90 0.0 0.0 0.00 0.00 0.00 56 1018.8
20260507024254 34 90 0.0 0.0 0.00 0.00 0.00 56 1018.8
20260507023753 34 90 0.0 0.0 0.00 0.00 0.00 56 1018.8
20260507023253 34 90 0.0 0.0 0.00 0.00 0.00 55 1018.8
20260507022755 35 90 0.0 0.0 0.00 0.00 0.00 55 1018.8
20260507022254 35 90 0.0 0.0 0.00 0.00 0.00 55 1018.8
20260507021754 35 113 0.0 0.0 0.00 0.00 0.00 54 1018.8
20260507021253 35 113 0.0 0.0 0.00 0.00 0.00 52 1018.8
20260507020754 35 90 0.0 0.0 0.00 0.00 0.00 51 1018.8
20260507020254 36 90 0.0 0.0 0.00 0.00 0.00 50 1018.8
20260507015754 36 90 0.0 0.0 0.00 0.00 0.00 50 1018.8
20260507015253 36 90 0.0 0.0 0.00 0.00 0.00 50 1018.8
20260507014755 36 90 0.0 0.0 0.00 0.00 0.00 49 1018.8
20260507014254 37 90 0.0 0.0 0.00 0.00 0.00 49 1018.8
20260507013753 37 90 0.0 0.0 0.00 0.00 0.00 48 1018.8
20260507013253 37 113 0.0 0.0 0.00 0.00 0.00 47 1018.8
20260507012753 37 113 0.0 0.0 0.00 0.00 0.00 47 1018.8
20260507012254 38 135 0.0 0.0 0.00 0.00 0.00 46 1018.8
20260507011754 38 158 0.0 4.3 0.00 0.00 0.00 45 1018.8
20260507011253 38 113 2.6 7.8 0.00 0.00 0.00 44 1018.8
20260507010754 39 135 0.9 2.6 0.00 0.00 0.00 43 1018.8
20260507010254 39 135 0.0 2.6 0.00 0.00 0.00 43 1018.8
20260507005754 40 113 0.0 2.6 0.00 0.00 0.00 42 1018.8
20260507005255 40 315 0.0 0.0 0.00 0.00 0.00 42 1018.8
20260507004754 40 68 0.0 0.0 0.00 0.00 0.00 42 1018.8
20260507004254 40 23 0.0 0.0 0.00 0.00 0.00 42 1018.8
20260507003753 39 180 0.0 0.0 0.00 0.00 0.00 42 1018.8
20260507003253 39 158 0.0 2.6 0.00 0.00 0.00 42 1018.8
20260507002753 39 135 0.0 4.3 0.00 0.00 0.00 42 1018.8
20260507002254 39 270 0.0 0.0 0.00 0.00 0.00 42 1018.8
20260507001753 39 113 0.0 2.6 0.00 0.00 0.00 42 1018.8
20260507001253 39 135 0.0 2.6 0.00 0.00 0.00 42 1018.8
20260507000754 39 135 0.0 0.0 0.00 0.00 0.00 42 1018.8
20260507000256 40 113 0.0 2.6 0.00 0.00 0.00 42 1018.8
20260506235756 40 158 0.0 2.6 0.00 0.00 0.00 41 1018.8
20260506235255 40 135 0.0 4.3 0.00 0.00 0.00 41 1018.8
20260506234755 41 158 0.0 0.0 0.00 0.00 0.00 41 1018.8
20260506234254 41 135 0.0 0.0 0.00 0.00 0.00 40 1018.8
20260506233754 41 113 0.0 5.2 0.00 0.00 0.00 40 1018.8
20260506233256 42 113 0.0 0.0 0.00 0.00 0.00 40 1018.8
20260506232756 42 113 0.0 0.0 0.00 0.00 0.00 40 1017.8
20260506232255 41 113 0.0 0.0 0.00 0.00 0.00 40 1017.8
20260506231754 41 113 0.0 0.0 0.00 0.00 0.00 40 1017.8
20260506231254 41 113 0.0 0.0 0.00 0.00 0.00 40 1018.6
20260506230755 41 113 0.0 0.0 0.00 0.00 0.00 41 1018.8
20260506230256 40 90 0.0 0.0 0.00 0.00 0.00 40 1018.8
20260506225755 41 68 0.0 0.0 0.00 0.00 0.00 40 1018.8
20260506225254 41 68 0.0 0.0 0.00 0.00 0.00 40 1018.8
20260506224754 41 0 0.0 0.0 0.00 0.00 0.00 40 1018.8
20260506224256 41 45 0.0 0.0 0.00 0.00 0.00 40 1018.8
20260506223755 41 315 0.0 0.0 0.00 0.00 0.00 40 1018.8
20260506223255 41 338 0.0 0.0 0.00 0.00 0.00 40 1018.8
20260506222754 41 0 0.0 0.0 0.00 0.00 0.00 40 1018.8
20260506222255 40 0 0.0 0.0 0.00 0.00 0.00 41 1018.8
20260506221755 39 0 0.0 0.0 0.00 0.00 0.00 40 1018.8
20260506221255 40 0 0.0 0.0 0.00 0.00 0.00 40 1018.8
20260506220756 40 23 0.0 0.0 0.00 0.00 0.00 41 1018.8
20260506220256 39 23 0.0 0.0 0.00 0.00 0.00 41 1018.8
20260506215755 38 23 0.0 0.0 0.00 0.00 0.00 41 1018.8
20260506215255 37 45 0.0 0.0 0.00 0.00 0.00 42 1018.8
20260506214755 37 0 0.0 0.0 0.00 0.00 0.00 42 1018.8
20260506214255 37 0 0.0 0.0 0.00 0.00 0.00 43 1018.8
20260506213755 37 0 0.0 2.6 0.00 0.00 0.00 42 1018.8
20260506213255 37 45 0.0 0.0 0.00 0.00 0.00 44 1018.8
20260506212755 36 0 2.6 5.2 0.00 0.00 0.00 47 1018.8
20260506212256 36 0 0.9 2.6 0.00 0.00 0.00 45 1018.8
20260506211756 36 0 1.7 5.2 0.00 0.00 0.00 46 1018.8
20260506211256 36 45 2.6 2.6 0.00 0.00 0.00 46 1018.8
20260506210754 37 0 1.7 6.1 0.00 0.00 0.00 45 1018.8
20260506210254 36 0 1.7 6.1 0.00 0.00 0.00 45 1018.8
20260506205754 36 338 0.9 5.2 0.00 0.00 0.00 44 1017.8
20260506205255 37 0 2.6 5.2 0.00 0.00 0.00 44 1017.8
20260506204754 37 0 0.9 5.2 0.00 0.00 0.00 46 1017.8
20260506204254 36 0 0.0 5.2 0.00 0.00 0.00 47 1018.8
20260506203755 35 0 0.0 5.2 0.00 0.00 0.00 46 1018.8
20260506203255 35 338 0.0 5.2 0.00 0.00 0.00 49 1018.8
20260506202755 35 0 2.6 5.2 0.00 0.00 0.00 49 1018.8
20260506202256 35 338 1.7 5.2 0.00 0.00 0.00 47 1018.8
20260506201755 35 0 2.6 4.3 0.00 0.00 0.00 52 1018.8
20260506201255 34 0 2.6 5.2 0.00 0.00 0.00 50 1018.8
20260506200754 34 0 4.3 5.2 0.00 0.00 0.00 51 1018.8
20260506200254 34 0 4.3 5.2 0.00 0.00 0.00 51 1018.8
20260506195756 34 23 2.6 5.2 0.00 0.00 0.00 52 1018.8
20260506195255 34 0 2.6 5.2 0.00 0.00 0.00 50 1018.8
20260506194755 34 0 2.6 5.2 0.00 0.00 0.00 51 1018.8
20260506194255 34 0 2.6 4.3 0.00 0.00 0.00 51 1018.8
20260506193756 34 23 0.9 5.2 0.00 0.00 0.00 51 1018.8
20260506193256 34 338 0.0 4.3 0.00 0.00 0.00 51 1018.8
20260506192756 35 0 4.3 5.2 0.00 0.00 0.00 52 1018.8
20260506192254 36 0 2.6 5.2 0.00 0.00 0.00 51 1018.8
20260506191754 35 23 0.0 4.3 0.00 0.00 0.00 51 1018.8
20260506191256 35 0 0.0 5.2 0.00 0.00 0.00 52 1018.8
20260506190755 35 0 2.6 5.2 0.00 0.00 0.00 52 1018.8
20260506190254 35 23 1.7 5.2 0.00 0.00 0.00 51 1018.8
20260506185754 34 338 0.9 4.3 0.00 0.00 0.00 52 1018.8
20260506185255 34 0 0.0 2.6 0.00 0.00 0.00 52 1018.8
20260506184756 34 0 0.0 2.6 0.00 0.00 0.00 52 1018.8
20260506184256 33 0 0.0 2.6 0.00 0.00 0.00 53 1018.8
20260506183754 33 0 1.7 5.2 0.00 0.00 0.00 52 1018.8
20260506183254 33 0 0.0 2.6 0.00 0.00 0.00 51 1018.8
20260506182754 33 0 0.0 2.6 0.00 0.00 0.00 53 1018.8
20260506182255 34 0 1.7 4.3 0.00 0.00 0.00 53 1018.8
20260506181755 34 338 0.0 0.0 0.00 0.00 0.00 59 1018.8
20260506181254 34 0 0.0 0.0 0.00 0.00 0.00 57 1018.8
20260506180755 35 90 0.0 0.0 0.00 0.00 0.00 56 1018.8
20260506180255 35 68 0.0 0.0 0.00 0.00 0.00 59 1018.8
20260506175755 35 68 0.0 0.0 0.00 0.00 0.00 59 1018.8
20260506175256 34 0 0.0 0.0 0.00 0.00 0.00 58 1018.8
20260506174756 34 113 0.0 0.0 0.00 0.00 0.00 58 1018.8
20260506174255 33 23 0.0 0.0 0.00 0.00 0.00 59 1018.8
20260506173754 33 0 0.0 0.0 0.00 0.00 0.00 61 1018.8
20260506173254 32 45 0.0 0.0 0.00 0.00 0.00 63 1018.8
20260506172756 32 23 0.0 0.0 0.00 0.00 0.00 66 1017.8
20260506172254 31 0 0.0 0.0 0.00 0.00 0.00 66 1017.8
20260506171755 31 0 0.0 0.0 0.00 0.00 0.00 64 1017.8
20260506171255 31 0 0.0 0.0 0.00 0.00 0.00 68 1018.8
20260506170756 31 0 0.0 0.0 0.00 0.00 0.00 70 1018.8
20260506170256 31 0 0.0 2.6 0.00 0.00 0.00 69 1018.8
20260506165756 31 0 1.7 5.2 0.00 0.00 0.00 67 1018.8
20260506165254 31 0 0.0 2.6 0.00 0.00 0.00 69 1018.8
20260506164754 31 0 0.0 4.3 0.00 0.00 0.00 67 1018.8